Regional Weather Roundup
Issued by NWS

Home | Current Version | Previous Version | Graphics & Text | Print | Product List | Glossary On
Versions: 1 2 3 4 5 6 7 8 9 10 11 12 13 14 15 16 17 18 19 20 21 22 23 24 25 26 27 28
000
ASUS45 KCYS 271610
RWRWY

WYOMING REGIONAL WEATHER ROUNDUP
NATIONAL WEATHER SERVICE CHEYENNE WY
900 AM MST MON FEB 27 2017

NOTE:  "FAIR" INDICATES FEW OR NO CLOUDS BELOW 12,000 FEET
WITH NO SIGNIFICANT WEATHER AND/OR OBSTRUCTIONS TO VISIBILITY.

WYZ001-271700-
YELLOWSTONE NATIONAL PARK

CITY           SKY/WX    TMP DP  RH WIND       PRES   REMARKS
LK YELLOWSTONE   N/A      6   4  91 CALM      29.52S
W YELLOWSTONE  NOT AVBL

$$
WYZ002>013-054>058-071-098>099-271700-
NORTHERN WYOMING

CITY           SKY/WX    TMP DP  RH WIND       PRES   REMARKS
JACKSON        PTSUNNY   14  12  92 MISG      29.56R
CODY           FAIR      22  15  75 NE7       29.55R WCI  13
GREYBULL       FAIR      23  15  71 CALM      29.59R
WORLAND        FAIR      24  16  71 CALM      29.58R
SHERIDAN       FAIR      26  15  63 W6        29.60R WCI  19
BUFFALO        FAIR      27   7  42 N7        29.55R WCI  19
GILLETTE       CLOUDY    30  15  53 SW14      29.57R WCI  19
HULETT         PTSUNNY   30  12  47 SW6       29.59S WCI  24
NEWCASTLE      FAIR      28  16  59 SE7       29.63S WCI  21

$$
WYZ014>020-022>026-101>103-271700-
CENTRAL WYOMING

CITY           SKY/WX    TMP DP  RH WIND       PRES   REMARKS
BIG PINEY      CLOUDY     9   7  92 CALM      29.58R
PINEDALE       CLOUDY    12   9  85 NW5       29.56S WCI   4
DUBOIS         PTSUNNY   14   9  79 NW10      29.50S WCI   1
LANDER         CLOUDY    16  10  77 E7        29.57S WCI   6
RIVERTON       PTSUNNY   16   8  71 SW10      29.58S WCI   4
CASPER         CLOUDY    23  18  81 NW6       29.58R WCI  16
DOUGLAS        PTSUNNY   25  13  60 E5        29.59R WCI  19

$$
WYZ021-027>030-104>119-271700-
SOUTHERN WYOMING

CITY           SKY/WX    TMP DP  RH WIND       PRES   REMARKS
EVANSTON       LGT SNOW  21  15  78 NW14      29.58S VSB 1   WCI   8
FORT BRIDGER   LGT SNOW  22  22 100 W7        29.62R VSB 3/4 WCI  13
ROCK SPRINGS   SNOW      21  17  84 W8        29.59R VSB 1/2 WCI  11
DIXON          FLURRIES  32  22  67 S16G29    29.62S WCI  21
RAWLINS        CLOUDY    29  20  69 SW23G30   29.55R WCI  15
SARATOGA       CLOUDY    30  23  74 S17G24    29.58R WCI  18
LARAMIE        FAIR      29  17  61 SW25G32   29.56F WCI  14
CHEYENNE       FAIR      27   7  42 S9        29.63S WCI  18
TORRINGTON     PTSUNNY   14   8  77 CALM      29.66S
PINE BLUFFS    FAIR      27  16  63 S7G20     29.67R WCI  19

$$




USA.gov is the U.S. government's official web portal to all federal, state and local government web resources and services.